Home   Weather   Ramsey   Past weeks

Flag for Isle of Man Past Weather in Ramsey, Isle of Man — Yesterday and Last 2 Weeks

Now
61 °F

Fog.


Feels Like: 61 °F
Forecast: 55 / 60 °F
Wind: 13 mph from Southwest

Location: Isle Of Man / Ronaldsway Airport

Current Time: Sep 28, 2016 at 1:05:51 PM

Latest Report: Sep 28, 2016 at 12:20 PM


Visibility: 4 mi

Pressure: 30.04 "Hg

Humidity: 94%

Dew Point: 59 °F

Location of RamseyLocation

Past Weather in Ramsey — Graph

°F

Ramsey Temperature Yesterday

Maximum temperature yesterday: 63 °F (at 10:50 AM)
Minimum temperature yesterday: 57 °F (at 12:50 AM)
Average temperature yesterday: 60 °F

High & Low Weather Summary for the Past Weeks

 TemperatureHumidityPressure
High75 °F (Sep 14, 2:20 PM)100% (Sep 14, 6:20 AM)30.27 "Hg (Sep 14, 6:20 AM)
Low48 °F (Sep 22, 6:20 AM)52% (Sep 20, 2:50 PM)29.59 "Hg (Sep 25, 1:50 AM)
Average59 °F82%29.99 "Hg
* Reported Sep 13 11:20 AM — Sep 28 11:20 AM, Ramsey, Weather by CustomWeather, © 2016

Note: Actual official high and low records may vary slightly from our data, if they occured in-between our weather recording intervals... More about our weather records

Advertising

Ramsey Weather History for the Previous 24 Hours

Scroll right to see more
 ConditionsComfort  
Time TempWeatherWind HumidityBarometerVisibility
11:20 AM
Wed, Sep 28
59 °FFog.18 mph100%30.04 "Hg3 mi
10:50 AM59 °FFog.17 mph100%30.04 "Hg4 mi
9:50 AM59 °FMore clouds than sun.16 mph94%30.07 "Hg5 mi
9:20 AM59 °FDrizzle. Mostly cloudy.13 mph94%30.07 "Hg2 mi
8:50 AM57 °FDrizzle. Mostly cloudy.13 mph100%30.07 "Hg3 mi
8:20 AM59 °FDrizzle. Cloudy.13 mph94%30.07 "Hg1 mi
7:50 AM59 °FMostly cloudy.14 mph88%30.07 "HgN/A
7:20 AM59 °FBroken clouds.16 mph88%30.07 "HgN/A
6:50 AM59 °FPassing clouds.18 mph88%30.07 "HgN/A
6:20 AM59 °FOvercast.18 mph88%30.07 "HgN/A
5:50 AM57 °FMostly cloudy.16 mph94%30.09 "HgN/A
5:20 AM59 °FMostly cloudy.13 mph82%30.09 "HgN/A
4:50 AM57 °FOvercast.13 mph88%30.09 "HgN/A
3:50 AM57 °FPassing clouds.18 mph88%30.07 "HgN/A
2:50 AM57 °FPassing clouds.20 mph88%30.09 "HgN/A
12:50 AM57 °FPassing clouds.22 mph82%30.07 "HgN/A
11:50 PM
Tue, Sep 27
59 °FPassing clouds.21 mph77%30.09 "HgN/A
10:50 PM59 °FPassing clouds.18 mph82%30.09 "HgN/A
9:50 PM61 °FPassing clouds.20 mph72%30.07 "HgN/A
9:20 PM61 °FPassing clouds.15 mph72%30.09 "HgN/A
8:50 PM61 °FPassing clouds.10 mph72%30.09 "HgN/A
8:20 PM59 °FPassing clouds.10 mph82%30.09 "HgN/A
7:50 PM59 °FPassing clouds.9 mph82%30.09 "HgN/A
7:20 PM59 °FClear.12 mph88%30.09 "Hg10 mi
6:50 PM59 °FSunny.17 mph82%30.09 "Hg10 mi
6:20 PM61 °FPassing clouds.16 mph77%30.09 "HgN/A
5:50 PM61 °FPassing clouds.15 mph77%30.09 "HgN/A
5:20 PM61 °FPassing clouds.20 mph77%30.09 "HgN/A
4:50 PM61 °FPassing clouds.14 mph77%30.09 "HgN/A
4:20 PM61 °FPassing clouds.14 mph77%30.07 "HgN/A
3:50 PM61 °FPassing clouds.14 mph77%30.07 "HgN/A
3:20 PM61 °FPassing clouds.21 mph72%30.07 "HgN/A
2:50 PM61 °FPassing clouds.20 mph72%30.07 "HgN/A
2:20 PM61 °FPassing clouds.21 mph72%30.07 "HgN/A
1:50 PM61 °FPassing clouds.21 mph72%30.04 "HgN/A
1:20 PM61 °FPassing clouds.16 mph77%30.04 "HgN/A
Weather by CustomWeather, © 2016

See weather overviewHow to use our weather pages